Погода в Приколотном

Украина / Харьковская область     50°09′38″N   37°21′02″E
темп.,
°C
ветер,
м/с
пор.,
м/с
влажн.,
%
обл.,
%
осадки,
мм/ч
давл.,
гПа
погр.,
м
16 июня, ср
ср1600:00+17св22886 0.8 101014
03:00+17всв228955 0.8 101012
06:00+18ссв1191100 2.5 101036
09:00+19ссв128788 3.8 1011170
12:00+24ююв226794 1.6 1012609
15:00+25с115641 2.1 10111245
18:00+24ссв23700 0.3 1012645
21:00+19св33830 1.1 101320
17 июня, чт
чт1700:00+17св3794100 0.0 1014125
03:00+16св499595 0.4 1014185
06:00+17св5129497 0.0 1015346
09:00+21всв698030 0.0 1016663
12:00+24св7869100 0.0 10171263
15:00+23св7117972 0.3 1017691
18:00+23св712780 0.8 1017824
21:00+20св814800 0.8 1019681
18 июня, пт
пт1800:00+17всв715731 0.0 1021514
03:00+16всв715770 0.0 1021396
06:00+15всв716821 0.0 1022463
09:00+19в812710 0.0 1023659
12:00+22всв79622 0.0 10231126
15:00+23всв79590 0.0 10231339
18:00+22всв69720 0.0 10231157
21:00+17всв412870 0.0 1024280
19 июня, сб
сб1900:00+16в513820 0.0 1025374
03:00+14всв512882 0.0 1025268
06:00+13всв613833 0.0 1025339
09:00+18в711670 0.0 1025615
12:00+21в79605 0.0 1024919
15:00+23в78610 0.0 10231097
18:00+22в59700 0.0 1023863
21:00+17всв411850 0.0 1023225
20 июня, вс
вс2000:00+15всв411870 0.0 1023217
03:00+14всв512880 0.0 1023217
06:00+15в513822 0.0 1023280
09:00+20в711640 0.0 1023501
12:00+23в79555 0.0 1022886
15:00+24в71060100 0.0 1020950
18:00+23в6116863 0.0 1020700
21:00+21всв61470100 0.0 1020392